contact:dominique.lefevre@mio.osupytheas.fr, maurice.libes@osupytheas.fr, didier.mallarino@osupytheas.fr
Project:EMSO http://www.emso-fr.org/EMSO-France
Depth: 2436.0 m
Title:EMSO Ligure Ouest : Data MII capteur MICROCAT
DateTime_Computer,Latitude,Longitude,Temperature,Conductivity,Pressure,DateTime_Instrument
DateTime_Computer,Latitude,Longitude,degC,S m-1,dbar,DateTime_Instrument
2021-04-11T00:00:06Z,42.805,6.029,13.3009,4.60114,2469.33,2021-4-11T02:01:14Z
2021-04-11T00:03:09Z,42.805,6.029,13.3002,4.60104,2469.293,2021-4-11T02:04:17Z
2021-04-11T00:06:12Z,42.805,6.029,13.3018,4.60040,2469.316,2021-4-11T02:07:20Z
2021-04-11T00:09:15Z,42.805,6.029,13.3018,4.60026,2469.33,2021-4-11T02:10:23Z
2021-04-11T00:12:18Z,42.805,6.029,13.3009,4.60071,2469.284,2021-4-11T02:13:27Z
2021-04-11T00:15:21Z,42.805,6.029,13.3000,4.60097,2469.33,2021-4-11T02:16:30Z
2021-04-11T00:18:25Z,42.805,6.029,13.3015,4.60069,2469.307,2021-4-11T02:19:33Z
2021-04-11T00:21:28Z,42.805,6.029,13.3013,4.60049,2469.293,2021-4-11T02:22:36Z
2021-04-11T00:24:31Z,42.805,6.029,13.3014,4.60079,2469.33,2021-4-11T02:25:39Z
2021-04-11T00:27:34Z,42.805,6.029,13.3024,4.60059,2469.34,2021-4-11T02:28:42Z
2021-04-11T00:30:37Z,42.805,6.029,13.3030,4.60022,2469.354,2021-4-11T02:31:45Z
2021-04-11T00:33:40Z,42.805,6.029,13.3018,4.60044,2469.33,2021-4-11T02:34:48Z
2021-04-11T00:36:43Z,42.805,6.029,13.3014,4.60039,2469.316,2021-4-11T02:37:52Z
2021-04-11T00:39:46Z,42.805,6.029,13.3026,4.60021,2469.27,2021-4-11T02:40:55Z
2021-04-11T00:42:50Z,42.805,6.029,13.3015,4.60029,2469.316,2021-4-11T02:43:58Z
2021-04-11T00:45:53Z,42.805,6.029,13.3004,4.60023,2469.316,2021-4-11T02:47:01Z
2021-04-11T00:48:56Z,42.805,6.029,13.3016,4.60048,2469.307,2021-4-11T02:50:04Z
2021-04-11T00:51:59Z,42.805,6.029,13.3022,4.60069,2469.33,2021-4-11T02:53:07Z
2021-04-11T00:55:02Z,42.805,6.029,13.3026,4.60020,2469.307,2021-4-11T02:56:10Z
2021-04-11T00:58:05Z,42.805,6.029,13.3033,4.60024,2469.307,2021-4-11T02:59:13Z
2021-04-11T01:01:08Z,42.805,6.029,13.3032,4.60021,2469.33,2021-4-11T03:02:17Z
2021-04-11T01:04:11Z,42.805,6.029,13.3017,4.60023,2469.354,2021-4-11T03:05:20Z
2021-04-11T01:07:15Z,42.805,6.029,13.3025,4.60008,2469.33,2021-4-11T03:08:23Z
2021-04-11T01:10:18Z,42.805,6.029,13.3009,4.60010,2469.33,2021-4-11T03:11:26Z
2021-04-11T01:13:21Z,42.805,6.029,13.3030,4.60031,2469.316,2021-4-11T03:14:29Z
2021-04-11T01:16:24Z,42.805,6.029,13.3048,4.60017,2469.316,2021-4-11T03:17:32Z
2021-04-11T01:19:27Z,42.805,6.029,13.3043,4.60029,2469.33,2021-4-11T03:20:35Z
2021-04-11T01:22:30Z,42.805,6.029,13.3048,4.60021,2469.27,2021-4-11T03:23:38Z
2021-04-11T01:25:33Z,42.805,6.029,13.3054,4.60039,2469.293,2021-4-11T03:26:42Z
2021-04-11T01:28:36Z,42.805,6.029,13.3048,4.60009,2469.307,2021-4-11T03:29:45Z
2021-04-11T01:31:40Z,42.805,6.029,13.3041,4.60006,2469.316,2021-4-11T03:32:48Z
2021-04-11T01:34:43Z,42.805,6.029,13.3051,4.60036,2469.33,2021-4-11T03:35:51Z
2021-04-11T01:37:46Z,42.805,6.029,13.3052,4.60063,2469.284,2021-4-11T03:38:54Z
2021-04-11T01:40:49Z,42.805,6.029,13.3049,4.60046,2469.293,2021-4-11T03:41:57Z
2021-04-11T01:43:52Z,42.805,6.029,13.3052,4.60078,2469.293,2021-4-11T03:45:00Z
2021-04-11T01:46:55Z,42.805,6.029,13.3014,4.60069,2469.316,2021-4-11T03:48:03Z
2021-04-11T01:49:58Z,42.805,6.029,13.2987,4.60104,2469.284,2021-4-11T03:51:07Z
2021-04-11T01:53:01Z,42.805,6.029,13.2985,4.60123,2469.33,2021-4-11T03:54:10Z
2021-04-11T01:56:05Z,42.805,6.029,13.2982,4.60066,2469.33,2021-4-11T03:57:13Z
2021-04-11T01:59:08Z,42.805,6.029,13.2982,4.60031,2469.316,2021-4-11T04:00:16Z
2021-04-11T02:02:11Z,42.805,6.029,13.2978,4.60023,2469.316,2021-4-11T04:03:19Z
2021-04-11T02:05:14Z,42.805,6.029,13.2981,4.60031,2469.293,2021-4-11T04:06:22Z
2021-04-11T02:08:17Z,42.805,6.029,13.2983,4.60060,2469.316,2021-4-11T04:09:25Z
2021-04-11T02:11:20Z,42.805,6.029,13.2978,4.60030,2469.33,2021-4-11T04:12:28Z
2021-04-11T02:14:23Z,42.805,6.029,13.2981,4.60013,2469.34,2021-4-11T04:15:32Z
2021-04-11T02:17:26Z,42.805,6.029,13.2976,4.60008,2469.354,2021-4-11T04:18:35Z
2021-04-11T02:20:30Z,42.805,6.029,13.2982,4.60022,2469.316,2021-4-11T04:21:38Z
2021-04-11T02:23:33Z,42.805,6.029,13.2980,4.60012,2469.316,2021-4-11T04:24:41Z
2021-04-11T02:26:36Z,42.805,6.029,13.2977,4.60003,2469.34,2021-4-11T04:27:44Z
2021-04-11T02:29:39Z,42.805,6.029,13.2982,4.60008,2469.293,2021-4-11T04:30:47Z
2021-04-11T02:32:42Z,42.805,6.029,13.2976,4.60014,2469.34,2021-4-11T04:33:50Z
2021-04-11T02:35:45Z,42.805,6.029,13.2978,4.60000,2469.33,2021-4-11T04:36:53Z
2021-04-11T02:38:48Z,42.805,6.029,13.2981,4.60004,2469.354,2021-4-11T04:39:57Z
2021-04-11T02:41:51Z,42.805,6.029,13.2982,4.60001,2469.363,2021-4-11T04:43:00Z
2021-04-11T02:44:55Z,42.805,6.029,13.2978,4.60003,2469.354,2021-4-11T04:46:03Z
2021-04-11T02:47:58Z,42.805,6.029,13.2980,4.59999,2469.363,2021-4-11T04:49:06Z
2021-04-11T02:51:01Z,42.805,6.029,13.2981,4.60003,2469.363,2021-4-11T04:52:09Z
2021-04-11T02:54:04Z,42.805,6.029,13.2978,4.60002,2469.33,2021-4-11T04:55:12Z
2021-04-11T02:57:07Z,42.805,6.029,13.2976,4.59999,2469.354,2021-4-11T04:58:15Z
2021-04-11T03:00:10Z,42.805,6.029,13.2976,4.59996,2469.41,2021-4-11T05:01:18Z
2021-04-11T03:03:13Z,42.805,6.029,13.2981,4.59995,2469.354,2021-4-11T05:04:21Z
2021-04-11T03:06:16Z,42.805,6.029,13.2982,4.59994,2469.386,2021-4-11T05:07:25Z
2021-04-11T03:09:19Z,42.805,6.029,13.2982,4.59995,2469.363,2021-4-11T05:10:28Z
2021-04-11T03:12:23Z,42.805,6.029,13.2976,4.59992,2469.363,2021-4-11T05:13:31Z
2021-04-11T03:15:26Z,42.805,6.029,13.2979,4.59994,2469.363,2021-4-11T05:16:34Z
2021-04-11T03:18:29Z,42.805,6.029,13.2976,4.60007,2469.377,2021-4-11T05:19:37Z
2021-04-11T03:21:32Z,42.805,6.029,13.2978,4.60004,2469.363,2021-4-11T05:22:40Z
2021-04-11T03:24:35Z,42.805,6.029,13.2978,4.60001,2469.373,2021-4-11T05:25:43Z
2021-04-11T03:27:38Z,42.805,6.029,13.2977,4.59987,2469.386,2021-4-11T05:28:46Z
2021-04-11T03:30:41Z,42.805,6.029,13.2978,4.59987,2469.386,2021-4-11T05:31:50Z
2021-04-11T03:33:44Z,42.805,6.029,13.2980,4.59987,2469.386,2021-4-11T05:34:53Z
2021-04-11T03:36:48Z,42.805,6.029,13.2983,4.59987,2469.363,2021-4-11T05:37:56Z
2021-04-11T03:39:51Z,42.805,6.029,13.2983,4.60005,2469.386,2021-4-11T05:40:59Z
2021-04-11T03:42:54Z,42.805,6.029,13.2979,4.59989,2469.386,2021-4-11T05:44:02Z
2021-04-11T03:45:57Z,42.805,6.029,13.2979,4.59990,2469.41,2021-4-11T05:47:05Z
2021-04-11T03:49:00Z,42.805,6.029,13.2978,4.59989,2469.4,2021-4-11T05:50:08Z
2021-04-11T03:52:03Z,42.805,6.029,13.2976,4.59988,2469.424,2021-4-11T05:53:11Z
2021-04-11T03:55:06Z,42.805,6.029,13.2982,4.59995,2469.424,2021-4-11T05:56:15Z
2021-04-11T03:58:09Z,42.805,6.029,13.2984,4.59990,2469.41,2021-4-11T05:59:18Z
2021-04-11T04:01:13Z,42.805,6.029,13.2977,4.59989,2469.4,2021-4-11T06:02:21Z
2021-04-11T04:04:16Z,42.805,6.029,13.2979,4.59987,2469.424,2021-4-11T06:05:24Z
2021-04-11T04:07:19Z,42.805,6.029,13.2981,4.59991,2469.433,2021-4-11T06:08:27Z
2021-04-11T04:10:22Z,42.805,6.029,13.2977,4.59988,2469.456,2021-4-11T06:11:30Z
2021-04-11T04:13:25Z,42.805,6.029,13.2980,4.59988,2469.424,2021-4-11T06:14:33Z
2021-04-11T04:16:28Z,42.805,6.029,13.2979,4.59991,2469.443,2021-4-11T06:17:36Z
2021-04-11T04:19:31Z,42.805,6.029,13.2979,4.59989,2469.433,2021-4-11T06:20:40Z
2021-04-11T04:22:34Z,42.805,6.029,13.2983,4.59986,2469.456,2021-4-11T06:23:43Z
2021-04-11T04:25:38Z,42.805,6.029,13.2978,4.59990,2469.433,2021-4-11T06:26:46Z
2021-04-11T04:28:41Z,42.805,6.029,13.2985,4.59986,2469.433,2021-4-11T06:29:49Z
2021-04-11T04:31:44Z,42.805,6.029,13.2984,4.59986,2469.47,2021-4-11T06:32:52Z
2021-04-11T04:34:47Z,42.805,6.029,13.2982,4.59986,2469.456,2021-4-11T06:35:55Z
2021-04-11T04:37:50Z,42.805,6.029,13.2980,4.59988,2469.494,2021-4-11T06:38:58Z
2021-04-11T04:40:53Z,42.805,6.029,13.2983,4.59987,2469.48,2021-4-11T06:42:01Z
2021-04-11T04:43:56Z,42.805,6.029,13.2981,4.59988,2469.494,2021-4-11T06:45:05Z
2021-04-11T04:46:59Z,42.805,6.029,13.2981,4.59987,2469.48,2021-4-11T06:48:08Z
2021-04-11T04:50:03Z,42.805,6.029,13.2984,4.59986,2469.503,2021-4-11T06:51:11Z
2021-04-11T04:53:06Z,42.805,6.029,13.2987,4.59990,2469.48,2021-4-11T06:54:14Z
2021-04-11T04:56:09Z,42.805,6.029,13.2980,4.59990,2469.48,2021-4-11T06:57:17Z
2021-04-11T04:59:12Z,42.805,6.029,13.2984,4.59986,2469.503,2021-4-11T07:00:20Z
2021-04-11T05:02:15Z,42.805,6.029,13.2983,4.59986,2469.503,2021-4-11T07:03:23Z
2021-04-11T05:05:18Z,42.805,6.029,13.2979,4.59986,2469.517,2021-4-11T07:06:26Z
2021-04-11T05:08:21Z,42.805,6.029,13.2982,4.59988,2469.48,2021-4-11T07:09:30Z
2021-04-11T05:11:24Z,42.805,6.029,13.2985,4.59988,2469.517,2021-4-11T07:12:33Z
2021-04-11T05:14:28Z,42.805,6.029,13.2980,4.59987,2469.503,2021-4-11T07:15:36Z
2021-04-11T05:17:31Z,42.805,6.029,13.2983,4.59989,2469.563,2021-4-11T07:18:39Z
2021-04-11T05:20:34Z,42.805,6.029,13.2979,4.59987,2469.494,2021-4-11T07:21:42Z
2021-04-11T05:23:37Z,42.805,6.029,13.2977,4.59991,2469.526,2021-4-11T07:24:45Z
2021-04-11T05:26:40Z,42.805,6.029,13.2979,4.59989,2469.517,2021-4-11T07:27:48Z
2021-04-11T05:29:43Z,42.805,6.029,13.2981,4.59984,2469.55,2021-4-11T07:30:51Z
2021-04-11T05:32:46Z,42.805,6.029,13.2982,4.59986,2469.54,2021-4-11T07:33:55Z
2021-04-11T05:35:49Z,42.805,6.029,13.2981,4.59987,2469.526,2021-4-11T07:36:58Z
2021-04-11T05:38:53Z,42.805,6.029,13.2979,4.59985,2469.526,2021-4-11T07:40:01Z
2021-04-11T05:41:56Z,42.805,6.029,13.2981,4.59985,2469.55,2021-4-11T07:43:04Z
2021-04-11T05:44:59Z,42.805,6.029,13.2980,4.59987,2469.55,2021-4-11T07:46:07Z
2021-04-11T05:48:02Z,42.805,6.029,13.2984,4.59991,2469.55,2021-4-11T07:49:10Z
2021-04-11T05:51:05Z,42.805,6.029,13.2979,4.59988,2469.563,2021-4-11T07:52:13Z
2021-04-11T05:54:08Z,42.805,6.029,13.2980,4.59985,2469.573,2021-4-11T07:55:16Z
2021-04-11T05:57:11Z,42.805,6.029,13.2983,4.59985,2469.573,2021-4-11T07:58:20Z
2021-04-11T06:00:14Z,42.805,6.029,13.2982,4.59985,2469.563,2021-4-11T08:01:23Z
2021-04-11T06:03:18Z,42.805,6.029,13.2977,4.59988,2469.55,2021-4-11T08:04:26Z
2021-04-11T06:06:21Z,42.805,6.029,13.2976,4.59993,2469.573,2021-4-11T08:07:29Z
2021-04-11T06:09:24Z,42.805,6.029,13.2983,4.59986,2469.573,2021-4-11T08:10:32Z
2021-04-11T06:12:27Z,42.805,6.029,13.2982,4.59986,2469.587,2021-4-11T08:13:35Z
2021-04-11T06:15:30Z,42.805,6.029,13.2980,4.59988,2469.597,2021-4-11T08:16:38Z
2021-04-11T06:18:33Z,42.805,6.029,13.2983,4.59989,2469.587,2021-4-11T08:19:41Z
2021-04-11T06:21:36Z,42.805,6.029,13.2979,4.59987,2469.573,2021-4-11T08:22:45Z
2021-04-11T06:24:39Z,42.805,6.029,13.2981,4.59987,2469.563,2021-4-11T08:25:48Z
2021-04-11T06:27:42Z,42.805,6.029,13.2977,4.59990,2469.55,2021-4-11T08:28:51Z
2021-04-11T06:30:46Z,42.805,6.029,13.2981,4.59990,2469.573,2021-4-11T08:31:54Z
2021-04-11T06:33:49Z,42.805,6.029,13.2979,4.59986,2469.587,2021-4-11T08:34:57Z
2021-04-11T06:36:52Z,42.805,6.029,13.2979,4.59987,2469.597,2021-4-11T08:38:00Z
2021-04-11T06:39:55Z,42.805,6.029,13.2979,4.59990,2469.597,2021-4-11T08:41:03Z
2021-04-11T06:42:58Z,42.805,6.029,13.2984,4.59988,2469.597,2021-4-11T08:44:06Z
2021-04-11T06:46:01Z,42.805,6.029,13.2981,4.59996,2469.597,2021-4-11T08:47:09Z
2021-04-11T06:49:04Z,42.805,6.029,13.2979,4.59988,2469.573,2021-4-11T08:50:13Z
2021-04-11T06:52:07Z,42.805,6.029,13.2980,4.59987,2469.597,2021-4-11T08:53:16Z
2021-04-11T06:55:11Z,42.805,6.029,13.2981,4.59987,2469.573,2021-4-11T08:56:19Z
2021-04-11T06:58:14Z,42.805,6.029,13.2979,4.59988,2469.62,2021-4-11T08:59:22Z
2021-04-11T07:01:17Z,42.805,6.029,13.2979,4.59987,2469.62,2021-4-11T09:02:25Z
2021-04-11T07:04:20Z,42.805,6.029,13.2980,4.59988,2469.597,2021-4-11T09:05:28Z
2021-04-11T07:07:23Z,42.805,6.029,13.2982,4.59990,2469.573,2021-4-11T09:08:31Z
2021-04-11T07:10:26Z,42.805,6.029,13.2979,4.60006,2469.587,2021-4-11T09:11:34Z
2021-04-11T07:13:29Z,42.805,6.029,13.2979,4.59991,2469.573,2021-4-11T09:14:38Z
2021-04-11T07:16:32Z,42.805,6.029,13.2982,4.59984,2469.573,2021-4-11T09:17:41Z
2021-04-11T07:19:36Z,42.805,6.029,13.2978,4.59988,2469.61,2021-4-11T09:20:44Z
2021-04-11T07:22:39Z,42.805,6.029,13.2982,4.59986,2469.597,2021-4-11T09:23:47Z
2021-04-11T07:25:42Z,42.805,6.029,13.2979,4.59986,2469.597,2021-4-11T09:26:50Z
2021-04-11T07:28:45Z,42.805,6.029,13.2979,4.59988,2469.573,2021-4-11T09:29:53Z
2021-04-11T07:31:48Z,42.805,6.029,13.2973,4.59986,2469.62,2021-4-11T09:32:56Z
2021-04-11T07:34:51Z,42.805,6.029,13.2981,4.59986,2469.62,2021-4-11T09:35:59Z
2021-04-11T07:37:54Z,42.805,6.029,13.2982,4.59985,2469.61,2021-4-11T09:39:03Z
2021-04-11T07:40:57Z,42.805,6.029,13.2977,4.59997,2469.61,2021-4-11T09:42:06Z
2021-04-11T07:44:01Z,42.805,6.029,13.2982,4.59985,2469.573,2021-4-11T09:45:09Z
2021-04-11T07:47:04Z,42.805,6.029,13.2981,4.59985,2469.597,2021-4-11T09:48:12Z
2021-04-11T07:50:07Z,42.805,6.029,13.2980,4.59985,2469.587,2021-4-11T09:51:15Z
2021-04-11T07:53:10Z,42.805,6.029,13.2979,4.59988,2469.563,2021-4-11T09:54:18Z
2021-04-11T07:56:13Z,42.805,6.029,13.2979,4.59986,2469.573,2021-4-11T09:57:21Z
2021-04-11T07:59:16Z,42.805,6.029,13.2978,4.59995,2469.573,2021-4-11T10:00:24Z
2021-04-11T08:02:19Z,42.805,6.029,13.2983,4.59988,2469.61,2021-4-11T10:03:28Z
2021-04-11T08:05:22Z,42.805,6.029,13.2982,4.59986,2469.597,2021-4-11T10:06:31Z
2021-04-11T08:08:26Z,42.805,6.029,13.2982,4.59984,2469.573,2021-4-11T10:09:34Z
2021-04-11T08:11:29Z,42.805,6.029,13.2981,4.59985,2469.587,2021-4-11T10:12:37Z
2021-04-11T08:14:32Z,42.805,6.029,13.2979,4.59986,2469.587,2021-4-11T10:15:40Z
2021-04-11T08:17:35Z,42.805,6.029,13.2977,4.59986,2469.526,2021-4-11T10:18:43Z
2021-04-11T08:20:38Z,42.805,6.029,13.2982,4.59986,2469.55,2021-4-11T10:21:46Z
2021-04-11T08:23:41Z,42.805,6.029,13.2978,4.59986,2469.563,2021-4-11T10:24:49Z
2021-04-11T08:26:44Z,42.805,6.029,13.2981,4.59987,2469.597,2021-4-11T10:27:53Z
2021-04-11T08:29:47Z,42.805,6.029,13.2982,4.59985,2469.634,2021-4-11T10:30:56Z
2021-04-11T08:32:51Z,42.805,6.029,13.2981,4.59986,2469.597,2021-4-11T10:33:59Z
2021-04-11T08:35:54Z,42.805,6.029,13.2979,4.59986,2469.62,2021-4-11T10:37:02Z
2021-04-11T08:38:57Z,42.805,6.029,13.2975,4.59992,2469.643,2021-4-11T10:40:05Z
2021-04-11T08:42:00Z,42.805,6.029,13.2985,4.59984,2469.643,2021-4-11T10:43:08Z
2021-04-11T08:45:03Z,42.805,6.029,13.2979,4.59987,2469.643,2021-4-11T10:46:11Z
2021-04-11T08:48:06Z,42.805,6.029,13.2982,4.59987,2469.61,2021-4-11T10:49:14Z
2021-04-11T08:51:09Z,42.805,6.029,13.2981,4.59985,2469.643,2021-4-11T10:52:18Z
2021-04-11T08:54:12Z,42.805,6.029,13.2980,4.59984,2469.657,2021-4-11T10:55:21Z
2021-04-11T08:57:16Z,42.805,6.029,13.2982,4.59984,2469.62,2021-4-11T10:58:24Z
2021-04-11T09:00:19Z,42.805,6.029,13.2979,4.59987,2469.62,2021-4-11T11:01:27Z
2021-04-11T09:03:22Z,42.805,6.029,13.2980,4.59985,2469.657,2021-4-11T11:04:30Z
2021-04-11T09:06:25Z,42.805,6.029,13.2979,4.59985,2469.657,2021-4-11T11:07:33Z
2021-04-11T09:09:28Z,42.805,6.029,13.2983,4.59988,2469.667,2021-4-11T11:10:36Z
2021-04-11T09:12:31Z,42.805,6.029,13.2983,4.59986,2469.643,2021-4-11T11:13:40Z
2021-04-11T09:15:34Z,42.805,6.029,13.2982,4.59985,2469.62,2021-4-11T11:16:43Z
2021-04-11T09:18:37Z,42.805,6.029,13.2979,4.59985,2469.667,2021-4-11T11:19:46Z
2021-04-11T09:21:41Z,42.805,6.029,13.2977,4.59986,2469.643,2021-4-11T11:22:49Z
2021-04-11T09:24:44Z,42.805,6.029,13.2981,4.59985,2469.634,2021-4-11T11:25:52Z
2021-04-11T09:27:47Z,42.805,6.029,13.2979,4.59988,2469.643,2021-4-11T11:28:55Z
2021-04-11T09:30:50Z,42.805,6.029,13.2979,4.59985,2469.643,2021-4-11T11:31:58Z
2021-04-11T09:33:53Z,42.805,6.029,13.2977,4.59985,2469.643,2021-4-11T11:35:01Z
2021-04-11T09:36:56Z,42.805,6.029,13.2979,4.59987,2469.667,2021-4-11T11:38:05Z
2021-04-11T09:39:59Z,42.805,6.029,13.2982,4.59985,2469.643,2021-4-11T11:41:08Z
2021-04-11T09:43:03Z,42.805,6.029,13.2979,4.59987,2469.657,2021-4-11T11:44:11Z
2021-04-11T09:46:06Z,42.805,6.029,13.2982,4.59986,2469.643,2021-4-11T11:47:14Z
2021-04-11T09:49:09Z,42.805,6.029,13.2983,4.59987,2469.643,2021-4-11T11:50:17Z
2021-04-11T09:52:12Z,42.805,6.029,13.2977,4.59988,2469.643,2021-4-11T11:53:20Z
2021-04-11T09:55:15Z,42.805,6.029,13.2979,4.59986,2469.657,2021-4-11T11:56:23Z
2021-04-11T09:58:18Z,42.805,6.029,13.2978,4.59986,2469.634,2021-4-11T11:59:26Z
2021-04-11T10:01:21Z,42.805,6.029,13.2979,4.59992,2469.657,2021-4-11T12:02:30Z
2021-04-11T10:04:24Z,42.805,6.029,13.2979,4.59986,2469.61,2021-4-11T12:05:33Z
2021-04-11T10:07:28Z,42.805,6.029,13.2977,4.59985,2469.634,2021-4-11T12:08:36Z
2021-04-11T10:10:31Z,42.805,6.029,13.2980,4.59986,2469.62,2021-4-11T12:11:39Z
2021-04-11T10:13:34Z,42.805,6.029,13.2982,4.59989,2469.62,2021-4-11T12:14:42Z
2021-04-11T10:16:37Z,42.805,6.029,13.2975,4.59988,2469.62,2021-4-11T12:17:45Z
2021-04-11T10:19:40Z,42.805,6.029,13.2980,4.59987,2469.573,2021-4-11T12:20:48Z
2021-04-11T10:22:43Z,42.805,6.029,13.2979,4.59986,2469.643,2021-4-11T12:23:51Z
2021-04-11T10:25:46Z,42.805,6.029,13.2979,4.59986,2469.62,2021-4-11T12:26:55Z
2021-04-11T10:28:49Z,42.805,6.029,13.2977,4.59986,2469.606,2021-4-11T12:29:58Z
2021-04-11T10:31:53Z,42.805,6.029,13.2983,4.59986,2469.643,2021-4-11T12:33:01Z
2021-04-11T10:34:56Z,42.805,6.029,13.2979,4.59987,2469.634,2021-4-11T12:36:04Z
2021-04-11T10:37:59Z,42.805,6.029,13.2979,4.59989,2469.597,2021-4-11T12:39:07Z
2021-04-11T10:41:02Z,42.805,6.029,13.2978,4.59989,2469.634,2021-4-11T12:42:10Z
2021-04-11T10:44:05Z,42.805,6.029,13.2977,4.59987,2469.62,2021-4-11T12:45:13Z
2021-04-11T10:47:08Z,42.805,6.029,13.2979,4.59987,2469.634,2021-4-11T12:48:17Z
2021-04-11T10:50:11Z,42.805,6.029,13.2980,4.59986,2469.62,2021-4-11T12:51:20Z
2021-04-11T10:53:15Z,42.805,6.029,13.2979,4.59986,2469.597,2021-4-11T12:54:23Z
2021-04-11T10:56:18Z,42.805,6.029,13.2982,4.59985,2469.597,2021-4-11T12:57:26Z
2021-04-11T10:59:21Z,42.805,6.029,13.2979,4.59991,2469.597,2021-4-11T13:00:29Z
2021-04-11T11:02:24Z,42.805,6.029,13.2977,4.59986,2469.573,2021-4-11T13:03:32Z
2021-04-11T11:05:27Z,42.805,6.029,13.2979,4.59986,2469.587,2021-4-11T13:06:35Z
2021-04-11T11:08:30Z,42.805,6.029,13.2978,4.59985,2469.573,2021-4-11T13:09:38Z
2021-04-11T11:11:33Z,42.805,6.029,13.2982,4.59986,2469.573,2021-4-11T13:12:42Z
2021-04-11T11:14:36Z,42.805,6.029,13.2979,4.59991,2469.587,2021-4-11T13:15:45Z
2021-04-11T11:17:40Z,42.805,6.029,13.2979,4.59989,2469.597,2021-4-11T13:18:48Z
2021-04-11T11:20:43Z,42.805,6.029,13.2977,4.59988,2469.587,2021-4-11T13:21:51Z
2021-04-11T11:23:46Z,42.805,6.029,13.2981,4.59991,2469.573,2021-4-11T13:24:54Z
2021-04-11T11:26:49Z,42.805,6.029,13.2979,4.59987,2469.55,2021-4-11T13:27:57Z
2021-04-11T11:29:52Z,42.805,6.029,13.2979,4.59990,2469.61,2021-4-11T13:31:00Z
2021-04-11T11:32:55Z,42.805,6.029,13.2979,4.59991,2469.55,2021-4-11T13:34:03Z
2021-04-11T11:35:58Z,42.805,6.029,13.2979,4.59989,2469.573,2021-4-11T13:37:07Z
2021-04-11T11:39:01Z,42.805,6.029,13.2981,4.59989,2469.55,2021-4-11T13:40:10Z
2021-04-11T11:42:05Z,42.805,6.029,13.2980,4.59987,2469.573,2021-4-11T13:43:13Z
2021-04-11T11:45:08Z,42.805,6.029,13.2978,4.59986,2469.55,2021-4-11T13:46:16Z
2021-04-11T11:48:11Z,42.805,6.029,13.2976,4.59991,2469.55,2021-4-11T13:49:19Z
2021-04-11T11:51:14Z,42.805,6.029,13.2980,4.59989,2469.54,2021-4-11T13:52:22Z
2021-04-11T11:54:17Z,42.805,6.029,13.2979,4.59990,2469.54,2021-4-11T13:55:25Z
2021-04-11T11:57:20Z,42.805,6.029,13.2982,4.59988,2469.54,2021-4-11T13:58:28Z
2021-04-11T12:00:23Z,42.805,6.029,13.2980,4.59995,2469.526,2021-4-11T14:01:32Z
2021-04-11T12:03:26Z,42.805,6.029,13.2980,4.59986,2469.54,2021-4-11T14:04:35Z
2021-04-11T12:06:30Z,42.805,6.029,13.2978,4.59986,2469.503,2021-4-11T14:07:38Z
2021-04-11T12:09:33Z,42.805,6.029,13.2979,4.59985,2469.517,2021-4-11T14:10:41Z
2021-04-11T12:12:36Z,42.805,6.029,13.2979,4.59985,2469.517,2021-4-11T14:13:44Z
2021-04-11T12:15:39Z,42.805,6.029,13.2980,4.59986,2469.503,2021-4-11T14:16:47Z
2021-04-11T12:18:42Z,42.805,6.029,13.2977,4.59984,2469.503,2021-4-11T14:19:50Z
2021-04-11T12:21:45Z,42.805,6.029,13.2980,4.59988,2469.503,2021-4-11T14:22:53Z
2021-04-11T12:24:48Z,42.805,6.029,13.2982,4.59988,2469.503,2021-4-11T14:25:57Z
2021-04-11T12:27:51Z,42.805,6.029,13.2979,4.59986,2469.48,2021-4-11T14:29:00Z
2021-04-11T12:30:55Z,42.805,6.029,13.2982,4.59987,2469.48,2021-4-11T14:32:03Z
2021-04-11T12:33:58Z,42.805,6.029,13.2979,4.59991,2469.503,2021-4-11T14:35:06Z
2021-04-11T12:37:01Z,42.805,6.029,13.2977,4.59988,2469.494,2021-4-11T14:38:09Z
2021-04-11T12:40:04Z,42.805,6.029,13.2980,4.59987,2469.48,2021-4-11T14:41:12Z
2021-04-11T12:43:07Z,42.805,6.029,13.2982,4.59988,2469.517,2021-4-11T14:44:15Z
2021-04-11T12:46:10Z,42.805,6.029,13.2982,4.59985,2469.503,2021-4-11T14:47:19Z
2021-04-11T12:49:13Z,42.805,6.029,13.2979,4.59986,2469.48,2021-4-11T14:50:22Z
2021-04-11T12:52:17Z,42.805,6.029,13.2981,4.59986,2469.456,2021-4-11T14:53:25Z
2021-04-11T12:55:20Z,42.805,6.029,13.2979,4.59985,2469.433,2021-4-11T14:56:28Z
2021-04-11T12:58:23Z,42.805,6.029,13.2976,4.59984,2469.48,2021-4-11T14:59:31Z
2021-04-11T13:01:26Z,42.805,6.029,13.2975,4.59985,2469.433,2021-4-11T15:02:34Z
2021-04-11T13:04:29Z,42.805,6.029,13.2981,4.59988,2469.443,2021-4-11T15:05:37Z
2021-04-11T13:07:32Z,42.805,6.029,13.2977,4.59984,2469.456,2021-4-11T15:08:40Z
2021-04-11T13:10:35Z,42.805,6.029,13.2981,4.59986,2469.433,2021-4-11T15:11:44Z
2021-04-11T13:13:38Z,42.805,6.029,13.2977,4.59986,2469.456,2021-4-11T15:14:47Z
2021-04-11T13:16:42Z,42.805,6.029,13.2980,4.59986,2469.494,2021-4-11T15:17:50Z
2021-04-11T13:19:45Z,42.805,6.029,13.2985,4.59989,2469.494,2021-4-11T15:20:53Z
2021-04-11T13:22:48Z,42.805,6.029,13.2979,4.59987,2469.433,2021-4-11T15:23:56Z
2021-04-11T13:25:51Z,42.805,6.029,13.2976,4.59986,2469.456,2021-4-11T15:26:59Z
2021-04-11T13:28:54Z,42.805,6.029,13.2981,4.59997,2469.447,2021-4-11T15:30:02Z
2021-04-11T13:31:57Z,42.805,6.029,13.2981,4.59986,2469.447,2021-4-11T15:33:05Z
2021-04-11T13:35:00Z,42.805,6.029,13.2981,4.59996,2469.433,2021-4-11T15:36:09Z
2021-04-11T13:38:03Z,42.805,6.029,13.2982,4.60011,2469.447,2021-4-11T15:39:12Z
2021-04-11T13:41:07Z,42.805,6.029,13.2977,4.59986,2469.47,2021-4-11T15:42:15Z
2021-04-11T13:44:10Z,42.805,6.029,13.2982,4.59989,2469.447,2021-4-11T15:45:18Z
2021-04-11T13:47:13Z,42.805,6.029,13.2980,4.59986,2469.47,2021-4-11T15:48:21Z
2021-04-11T13:50:16Z,42.805,6.029,13.2979,4.59987,2469.433,2021-4-11T15:51:24Z
2021-04-11T13:53:19Z,42.805,6.029,13.2976,4.59986,2469.433,2021-4-11T15:54:27Z
2021-04-11T13:56:22Z,42.805,6.029,13.2981,4.59985,2469.433,2021-4-11T15:57:30Z
2021-04-11T13:59:25Z,42.805,6.029,13.2978,4.59986,2469.433,2021-4-11T16:00:34Z
2021-04-11T14:02:28Z,42.805,6.029,13.2979,4.59987,2469.447,2021-4-11T16:03:37Z
2021-04-11T14:05:32Z,42.805,6.029,13.2981,4.59991,2469.447,2021-4-11T16:06:40Z
2021-04-11T14:08:35Z,42.805,6.029,13.2982,4.59991,2469.47,2021-4-11T16:09:43Z
2021-04-11T14:11:38Z,42.805,6.029,13.2982,4.59988,2469.433,2021-4-11T16:12:46Z
2021-04-11T14:14:41Z,42.805,6.029,13.2981,4.59988,2469.41,2021-4-11T16:15:49Z
2021-04-11T14:17:44Z,42.805,6.029,13.2982,4.59987,2469.433,2021-4-11T16:18:52Z
2021-04-11T14:20:47Z,42.805,6.029,13.2981,4.59988,2469.424,2021-4-11T16:21:55Z
2021-04-11T14:23:50Z,42.805,6.029,13.2979,4.59986,2469.433,2021-4-11T16:24:59Z
2021-04-11T14:26:53Z,42.805,6.029,13.2978,4.59984,2469.447,2021-4-11T16:28:02Z
2021-04-11T14:29:57Z,42.805,6.029,13.2981,4.59984,2469.424,2021-4-11T16:31:05Z
2021-04-11T14:33:00Z,42.805,6.029,13.2981,4.59996,2469.41,2021-4-11T16:34:08Z
2021-04-11T14:36:03Z,42.805,6.029,13.2982,4.59991,2469.433,2021-4-11T16:37:11Z
2021-04-11T14:39:06Z,42.805,6.029,13.2984,4.59993,2469.433,2021-4-11T16:40:14Z
2021-04-11T14:42:09Z,42.805,6.029,13.2982,4.59988,2469.447,2021-4-11T16:43:17Z
2021-04-11T14:45:12Z,42.805,6.029,13.2982,4.59989,2469.396,2021-4-11T16:46:21Z
2021-04-11T14:48:15Z,42.805,6.029,13.2979,4.59993,2469.424,2021-4-11T16:49:24Z
2021-04-11T14:51:18Z,42.805,6.029,13.2979,4.59990,2469.386,2021-4-11T16:52:27Z
2021-04-11T14:54:22Z,42.805,6.029,13.2979,4.59989,2469.386,2021-4-11T16:55:30Z
2021-04-11T14:57:25Z,42.805,6.029,13.2977,4.59991,2469.41,2021-4-11T16:58:33Z
2021-04-11T15:00:28Z,42.805,6.029,13.2979,4.59988,2469.424,2021-4-11T17:01:36Z
2021-04-11T15:03:31Z,42.805,6.029,13.2981,4.59998,2469.41,2021-4-11T17:04:39Z
2021-04-11T15:06:34Z,42.805,6.029,13.2982,4.59988,2469.41,2021-4-11T17:07:42Z
2021-04-11T15:09:37Z,42.805,6.029,13.2981,4.59993,2469.433,2021-4-11T17:10:46Z
2021-04-11T15:12:40Z,42.805,6.029,13.2975,4.59996,2469.447,2021-4-11T17:13:49Z